{"data":{"norad_id":57999,"intl_designator":"2023-153J","name":"STARLINK-30552","alt_names":[],"object_type":"PAYLOAD","status":"ACTIVE","operator":null,"country":"US","launch_date":"2023-10-05","launch_site_code":"AFETR","launch_vehicle":null,"mission":null,"orbit_class":"UNKNOWN","rcs_meters":null,"size_class":null,"mass_kg":null,"dimensions":null,"purposes":["comms"],"wikipedia_slug":null,"has_3d_model":false,"image_url":null,"decayed_at":null,"tle_current":{"epoch":"2026-05-25T00:12:18.739872Z","epoch_age_seconds":75147,"freshness":"FRESH","line1":"1 57999U 23153J   26145.00855023  .00005361  00000+0  20409-3 0  9996","line2":"2 57999  43.0008 356.4522 0001188 275.0949  84.9767 15.27596113146560","mean_motion":15.27596113,"eccentricity":0.0001188,"inclination_deg":43.0008,"raan_deg":356.4522,"arg_perigee_deg":275.0949,"mean_anomaly_deg":84.9767,"bstar":0.00020409,"rev_number":14656,"period_min":94.265754393157,"perigee_km":482.18574516875,"apogee_km":483.81595152151,"semimajor_km":6861.1378483451,"source":"CELESTRAK","updated_at":"2026-05-25T13:38:18.491023Z"}}}